Regional Weather Roundup
Issued by NWS Albany, NY

Home | Current Version | Previous Version | Text Only | Print | Product List | Glossary On
Versions: 1 2 3 4 5 6 7 8 9 10 11 12 13 14 15 16 17 18 19 20 21 22 23 24 25 26 27 28 29 30 31 32 33 34 35 36 37 38 39 40 41 42 43 44 45 46 47 48 49 50
000
ASUS41 KALY 172210
RWRALY

NEW YORK STATE HOURLY WEATHER ROUNDUP
NATIONAL WEATHER SERVICE ALBANY NY
500 PM EST WED DEC 17 2014

NOTE: "FAIR" INDICATES FEW OR NO CLOUDS BELOW 12,000 FEET WITH NO
SIGNIFICANT WEATHER AND/OR NO OBSTRUCTIONS TO VISIBILITY.

NYZ032-033-038>043-046>054-057>066-NYZ062>081-172300-
EAST


CITY           SKY/WX    TMP DP  RH WIND       PRES   REMARKS
ALBANY         LGT RAIN  40  33  76 W8        29.84R WCI  34
GLENS FALLS    CLOUDY    41  35  79 SW8       29.78R
POUGHKEEPSIE   CLOUDY    47  33  58 W14       29.83R
NEWBURGH       LGT RAIN  43  36  75 NW12G23   29.85R
MONTGOMERY     CLOUDY    44  33  65 NW8G21    29.84R
WHITE PLAINS   MOCLDY    46  35  65 NW16G22   29.82R
ISLIP          LGT RAIN  48  38  68 W18G28    29.81R
NEW YORK CITY  CLOUDY    48  37  65 NW17      29.84R
CENTRAL PARK   CLOUDY    49  36  61 W7        29.87R
$$

NYZ005>009-017-018-044>046-055-056-172300-
CENTRAL


CITY           SKY/WX    TMP DP  RH WIND       PRES   REMARKS
FULTON         LGT SNOW  34  31  88 W10       29.88R FOG     WCI  26
SYRACUSE       FLURRIES  34  33  96 W12       29.88S WCI  25
ROME           LGT RAIN  34  33  96 W13       29.89R WCI  25
ELMIRA         CLOUDY    38  27  64 W12G21    29.90R WCI  30
BINGHAMTON     FLURRIES  33  32  96 NW9       29.85R WCI  25
MONTICELLO     MOCLDY    36  34  93 W14       29.85S WCI  27
$$

NYZ026>034-041>043-172300-
NORTH


CITY           SKY/WX    TMP DP  RH WIND       PRES   REMARKS
WATERTOWN      LGT RAIN  39  32  76 W16G23    29.83R WCI  30
FORT DRUM      NOT AVBL
MASSENA        LGT RAIN  36  34  92 W6        29.79R WCI  31
SARANAC LAKE   LGT SNOW  33  32  96 SW6       29.72S WCI  28
PLATTSBURGH    CLOUDY    38  35  89 SW3       29.75R
$$

NYZ001>004-010>016-019>021-172300-
WEST


CITY           SKY/WX    TMP DP  RH WIND       PRES   REMARKS
NIAGARA FALLS  LGT RAIN  33  29  85 W20       29.93S WCI  21
BUFFALO        FLURRIES  33  29  85 W21G29    29.94R WCI  21
DUNKIRK        MIX PCPN  33  29  85 W17G28    29.99R WCI  22
JAMESTOWN      CLOUDY    28  25  86 W16       29.96R WCI  17
WELLSVILLE     FLURRIES  31  24  75 W13       29.90R WCI  21
ROCHESTER      LGT SNOW  34  30  85 W20G26    29.90R FOG     WCI  23
PENN YAN       CLOUDY    37  27  67 W16G25    29.89R WCI  28
$$

             KEY
       WCI = WIND CHILL INDEX
       VSB = VISIBILITY
       HX  = HEAT INDEX
$$



USA.gov is the U.S. government's official web portal to all federal, state and local government web resources and services.